Sydney, New South Wales

3:25 AM AEDT on February 14, 2016 (GMT +1100)
Kingsford Smith International

Weather History for YSSY - March, 2014

Change the Weather History Date:

Friday, March 14, 2014

  Actual Average Record
Temperature  
Mean Temperature 74 °F -  
Max Temperature 82 °F 76 °F 84 °F (1999)
Min Temperature 65 °F 60 °F 60 °F (2007)
Cooling Degree Days 8    
Growing Degree Days 24 (Base 50)    
Moisture  
Dew Point 62 °F    
Average Humidity 65    
Maximum Humidity 94    
Minimum Humidity 29    
Precipitation  
Precipitation 0.00 in 0.18 in - ()
Sea Level Pressure  
Sea Level Pressure 30.01 in    
Wind  
Wind Speed 9 mph ()    
Max Wind Speed 23 mph    
Max Gust Speed -    
Visibility 9.7 miles    
Events      
Averages and records for this station are not official NWS values.
T = Trace of Precipitation, MM = Missing Value Source: Averaged Metar Reports

Daily Weather History Graph

Daily Weather History Graph

Search for Another Location

Airport or City:

Trip Planner

Search our weather history database for the weather conditions in past years. The results will help you decide how hot, cold, wet, or windy it might be!

Date:

Astronomy

Mar. 14, 2014 Rise Set
Actual Time 6:53 AM AEDT 7:15 PM AEDT
Civil Twilight 6:28 AM AEDT 7:40 PM AEDT
Nautical Twilight 5:58 AM AEDT 8:09 PM AEDT
Astronomical Twilight 5:29 AM AEDT 8:39 PM AEDT
Moon 5:38 PM AEDT (3/14) 4:22 AM AEDT (3/14)
Length of Visible Light 13h 12m
Length of Day
12h 21m
Waxing Gibbous, 93% of the Moon is Illuminated
Mar 14
Waxing Gibbous
Mar 17
Full
Mar 24
Last Quarter
Mar 31
New
Apr 7
First Quarter

Hourly Weather History & Observations

Time (AEDT) Temp. Heat Index Dew Point Humidity Pressure Visibility Wind Dir Wind Speed Gust Speed Precip Events Conditions
12:00 AM 72 °F - 65 °F 72% 30.08 in 19 mi North 3.5 mph - -   Partly Cloudy
12:00 AM 71.6 °F - 64.4 °F 78% 30.06 in 6.2 mi North 3.5 mph - N/A   Partly Cloudy
12:30 AM 73.4 °F - 64.4 °F 73% 30.06 in 6.2 mi North 5.8 mph - N/A   Partly Cloudy
1:00 AM 72 °F - 64 °F 69% 30.08 in - NW 5.8 mph - -  
1:00 AM 71.6 °F - 64.4 °F 78% 30.06 in 6.2 mi NW 5.8 mph - N/A   Partly Cloudy
1:30 AM 71.6 °F - 64.4 °F 78% 30.06 in 6.2 mi NW 4.6 mph - N/A   Partly Cloudy
2:00 AM 70 °F - 64 °F 76% 30.06 in - North 5.8 mph - -  
2:00 AM 69.8 °F - 64.4 °F 83% 30.06 in 6.2 mi North 5.8 mph - N/A   Partly Cloudy
2:30 AM 69.8 °F - 64.4 °F 83% 30.04 in 6.2 mi WNW 4.6 mph - N/A   Partly Cloudy
3:00 AM 69 °F - 64 °F 79% 30.05 in 16 mi NW 4.6 mph - -   Partly Cloudy
3:00 AM 68.0 °F - 64.4 °F 88% 30.04 in - NW 4.6 mph - N/A   Clear
3:30 AM 68.0 °F - 64.4 °F 88% 30.04 in - NNW 5.8 mph - N/A   Clear
4:00 AM 67 °F - 64 °F 88% 30.04 in - NW 4.6 mph - -  
4:00 AM 68.0 °F - 64.4 °F 88% 30.04 in - NW 4.6 mph - N/A   Clear
4:30 AM 66.2 °F - 64.4 °F 94% 30.01 in - NW 3.5 mph - N/A   Clear
5:00 AM 67 °F - 64 °F 86% 30.03 in - NW 3.5 mph - -  
5:00 AM 66.2 °F - 64.4 °F 94% 30.01 in - NW 3.5 mph - N/A   Clear
5:30 AM 66.2 °F - 64.4 °F 94% 30.01 in - WNW 2.3 mph - N/A   Clear
6:00 AM 67 °F - 64 °F 85% 30.03 in 16 mi Calm Calm - -   Partly Cloudy
6:00 AM 66.2 °F - 64.4 °F 94% 30.01 in - Calm Calm - N/A   Clear
6:30 AM 69.8 °F - 64.4 °F 83% 30.04 in - Calm Calm - N/A   Clear
7:00 AM 67 °F - 63 °F 83% 30.05 in - NW 4.6 mph - -  
7:00 AM 66.2 °F - 62.6 °F 88% 30.04 in - NW 4.6 mph - N/A   Clear
7:30 AM 66.2 °F - 64.4 °F 94% 30.04 in - West 5.8 mph - N/A   Clear
8:00 AM 69 °F - 64 °F 81% 30.07 in - WNW 5.8 mph - -  
8:00 AM 69.8 °F - 64.4 °F 83% 30.06 in - WNW 5.8 mph - N/A   Clear
8:30 AM 75.2 °F - 62.6 °F 65% 30.06 in - West 4.6 mph - N/A   Clear
9:00 AM 76 °F - 63 °F 55% 30.07 in 16 mi North 6.9 mph - -   Partly Cloudy
9:00 AM 75.2 °F - 62.6 °F 65% 30.06 in - North 6.9 mph - N/A   Clear
9:30 AM 78.8 °F - 62.6 °F 57% 30.06 in - North 9.2 mph - N/A   Clear
10:00 AM 78 °F - 60 °F 44% 30.07 in - North 11.5 mph - -  
10:00 AM 77.0 °F - 60.8 °F 57% 30.06 in 6.2 mi North 11.5 mph - N/A   Mostly Cloudy
10:30 AM 75.2 °F - 62.6 °F 65% 30.06 in 6.2 mi NNE 12.7 mph - N/A   Mostly Cloudy
11:00 AM 76 °F - 62 °F 52% 30.06 in - NNE 15.0 mph - -  
11:00 AM 77.0 °F - 60.8 °F 57% 30.04 in 6.2 mi NNE 15.0 mph - N/A   Mostly Cloudy
11:30 AM 77.0 °F - 60.8 °F 57% 30.04 in 6.2 mi NE 15.0 mph - N/A   Scattered Clouds
12:00 PM 80 °F - 60 °F 40% 30.04 in 16 mi NNE 12.7 mph - -   Partly Cloudy
12:00 PM 80.6 °F 81.1 °F 59.0 °F 48% 30.04 in 6.2 mi NNE 12.7 mph - N/A   Scattered Clouds
12:30 PM 78.8 °F - 57.2 °F 47% 30.01 in 6.2 mi NE 15.0 mph - N/A   Scattered Clouds
1:00 PM 82 °F - 55 °F 29% 30.01 in - NNE 15.0 mph - -  
1:00 PM 82.4 °F 81.7 °F 55.4 °F 39% 30.01 in - NNE 15.0 mph - N/A   Clear
1:30 PM 80.6 °F 80.8 °F 57.2 °F 45% 29.98 in - NNE 15.0 mph - N/A   Clear
2:00 PM 81 °F - 58 °F 36% 29.99 in - ENE 17.3 mph - -  
2:00 PM 80.6 °F 81.1 °F 59.0 °F 48% 29.98 in - ENE 17.3 mph - N/A   Clear
2:30 PM 78.8 °F - 57.2 °F 47% 29.95 in - ENE 17.3 mph - N/A   Clear
3:00 PM 79 °F - 58 °F 38% 29.96 in 16 mi ENE 20.7 mph - -   Partly Cloudy
3:00 PM 78.8 °F - 57.2 °F 47% 29.95 in - ENE 20.7 mph - N/A   Clear
3:30 PM 80.6 °F 80.8 °F 57.2 °F 45% 29.95 in - NE 21.9 mph - N/A   Clear
4:00 PM 82 °F - 58 °F 34% 29.94 in - NE 23.0 mph - -  
4:00 PM 82.4 °F 82.5 °F 59.0 °F 45% 29.92 in - NE 23.0 mph - N/A   Clear
4:30 PM 80.6 °F 81.5 °F 60.8 °F 51% 29.92 in - NE 21.9 mph - N/A   Clear
5:00 PM 80 °F - 61 °F 42% 29.94 in - NE 21.9 mph - -  
5:00 PM 78.8 °F - 60.8 °F 54% 29.92 in - NE 21.9 mph - N/A   Clear
5:30 PM 77.0 °F - 60.8 °F 57% 29.92 in - NNE 21.9 mph - N/A   Clear
6:00 PM 76 °F - 63 °F 55% 29.95 in 19 mi NE 21.9 mph - -   Partly Cloudy
6:00 PM 75.2 °F - 62.6 °F 65% 29.95 in 6.2 mi NNE 21.9 mph - N/A   Mostly Cloudy
6:30 PM 77.0 °F - 62.6 °F 61% 29.95 in 6.2 mi NNE 20.7 mph - N/A   Mostly Cloudy
7:00 PM 76 °F - 64 °F 58% 29.96 in - NNE 19.6 mph - -  
7:00 PM 77.0 °F - 64.4 °F 65% 29.95 in 6.2 mi NNE 19.6 mph - N/A   Mostly Cloudy
7:30 PM 77.0 °F - 64.4 °F 65% 29.95 in 6.2 mi NNE 19.6 mph - N/A   Mostly Cloudy
8:00 PM 76 °F - 64 °F 59% 29.96 in - NNE 18.4 mph - -  
8:00 PM 75.2 °F - 64.4 °F 69% 29.95 in 6.2 mi NNE 18.4 mph - N/A   Mostly Cloudy
8:30 PM 75.2 °F - 64.4 °F 69% 29.95 in - NNE 18.4 mph - N/A   Clear
9:00 PM 75 °F - 64 °F 61% 29.98 in 19 mi NNE 17.3 mph - -   Partly Cloudy
9:00 PM 75.2 °F - 64.4 °F 69% 29.98 in - NNE 17.3 mph - N/A   Clear
9:30 PM 75.2 °F - 64.4 °F 69% 29.95 in - NNE 19.6 mph - N/A   Clear
10:00 PM 75 °F - 64 °F 60% 29.97 in - NNE 20.7 mph - -  
10:00 PM 75.2 °F - 64.4 °F 69% 29.95 in - NNE 20.7 mph - N/A   Clear
10:30 PM 75.2 °F - 64.4 °F 69% 29.95 in - NNE 19.6 mph - N/A   Clear
11:00 PM 75 °F - 64 °F 60% 29.96 in - NNE 17.3 mph - -  
11:00 PM 75.2 °F - 64.4 °F 69% 29.95 in - NNE 17.3 mph - N/A   Clear
11:30 PM 73.4 °F - 64.4 °F 73% 29.95 in - NNE 16.1 mph - N/A   Clear